This demonstration page uses our WeatherBlox Daily Observations layout. Learn more.

Left ArrowRight Arrow

41.86663, -103.66717

Hourly Observations for April 18, 2017

Temp ( °F °C ) Dew Point ( °F °C ) Humidity (%) Winds ( mph kmh ) Pressure ( in mb ) Visibility ( mi km ) Precip ( " mm )
12:53 am 00:53 Clear 50 10 36 2.2 59 59 N 16 26 29.87 1011 10 16.0934 N/A
1:53 am 01:53 Clear 44 6.7 35 1.7 71 71 WNW 7 11 29.91 1013 10 16.0934 N/A
2:53 am 02:53 Clear 45 7.2 34 1.1 66 66 W 5 7 29.91 1013 10 16.0934 N/A
3:53 am 03:53 Clear 39 3.9 32 undefined 76 76 N N/A 29.93 1014 10 16.0934 N/A
4:53 am 04:53 Clear 42 5.6 34 1.1 73 73 WNW 3 6 29.93 1014 10 16.0934 N/A
5:53 am 05:53 Clear 36 2.2 30 -1.1 79 79 N N/A 29.96 1015 10 16.0934 N/A
6:53 am 06:53 Sunny 39 3.9 33 0.6 79 79 NNW 8 13 29.96 1015 10 16.0934 N/A
7:53 am 07:53 Sunny 46 7.8 36 2.2 68 68 NW 9 15 29.95 1014 10 16.0934 N/A
8:53 am 08:53 Sunny 52 11.1 36 2.2 55 55 W 6 9 29.93 1013 10 16.0934 N/A
9:53 am 09:53 Sunny 56 13.3 35 1.7 46 46 W 7 11 29.93 1013 10 16.0934 N/A
10:53 am 10:53 Sunny 61 16.1 32 undefined 34 34 S 5 7 29.92 1013 10 16.0934 N/A
11:53 am 11:53 Sunny 60 15.6 29 -1.7 31 31 ESE 3 6 29.93 1013 10 16.0934 N/A
12:53 pm 12:53 Sunny 62 16.7 25 -3.9 24 24 SE 5 7 29.92 1013 10 16.0934 N/A
1:53 pm 13:53 Mostly Sunny 63 17.2 29 -1.7 28 28 ESE 7 11 29.91 1013 10 16.0934 N/A
2:53 pm 14:53 Sunny 68 20 29 -1.7 23 23 undefined N/A 29.88 1012 10 16.0934 N/A
3:53 pm 15:53 Mostly Sunny 69 20.6 30 -1.1 23 23 ESE 12 19 29.88 1012 10 16.0934 N/A
4:53 pm 16:53 Cloudy 66 18.9 30 -1.1 26 26 E 14 22 29.87 1012 10 16.0934 N/A
5:53 pm 17:53 Mostly Sunny 66 18.9 31 -0.6 27 27 E 14 22 29.88 1012 10 16.0934 N/A
6:53 pm 18:53 Partly Cloudy 64 17.8 31 -0.6 29 29 E 16 26 29.87 1012 10 16.0934 N/A
7:53 pm 19:53 Partly Cloudy 61 16.1 31 -0.6 32 32 E 14 22 29.83 1010 10 16.0934 N/A
8:53 pm 20:53 Cloudy 59 15 32 undefined 36 36 E 13 20 29.84 1010 10 16.0934 N/A
9:53 pm 21:53 Mostly Clear 60 15.6 32 undefined 35 35 E 14 22 29.81 1010 10 16.0934 N/A
10:53 pm 22:53 Clear 56 13.3 33 0.6 42 42 E 12 19 29.8 1009 10 16.0934 N/A
11:53 pm 23:53 Mostly Cloudy 57 13.9 34 1.1 42 42 ESE 15 24 29.77 1008 10 16.0934 N/A

Powered by AerisWeather